CAPE
0 1 27 27 4 0 0 0 0 0 0 0 0 0 0 0 0 0 1 11 13 6 8 7 5 4 2 2 1 1 1 1 0 0 0 0 0 0 0 0 0 0 0
0 0 0 1 0 0 0 0 0 0 0 0 0 0 0 0 0 0 0 0 2 7 2 1 1 1 1 1 0 0 0 0 0 0 0 0 0 0 0 0 0 0 0
0 0 0 0 0 0 0 0 0 0 0 0 0 0 0 0 0 0 0 0 0 0 0 0 0 0 0 0 0 0 0 0 0 0 0 0 0 0 0 0 0 0 0
0 0 0 0 0 0 0 0 0 0 0 0 0 0 0 0 0 0 0 0 0 0 0 0 0 0 0 0 0 0 0 0 0 0 0 0 0 0 0 0 0 0 0
0 0 0 0 0 0 0 0 0 0 0 0 0 0 0 0 0 0 0 0 0 0 0 0 0 0 0 0 0 0 0 0 0 0 0 0 0 0 0 0 0 0 0
0 0 0 0 0 0 0 0 0 0 0 0 0 0 0 0 0 0 0 0 0 0 0 0 0 0 0 0 0 0 0 0 0 0 0 0 0 0 0 0 0 0 0
0 0 0 0 0 0 0 0 0 0 0 0 0 0 0 0 0 0 0 0 0 0 0 0 0 0 0 0 0 0 0 0 0 0 0 0 0 0 0 0 0 0 0
0 0 0 0 0 0 0 0 0 0 0 0 0 0 0 0 0 0 0 0 0 0 0 0 0 0 0 0 0 0 0 0 0 0 0 0 0 0 0 0 0 0 0
0 0 0 0 0 0 0 0 0 0 0 0 0 0 0 0 0 0 0 0 0 0 0 0 0 0 0 0 0 0 0 0 0 0 0 0 0 0 0 0 0 0 0
0 0 0 0 0 0 0 0 0 0 0 0 0 0 0 0 0 0 0 0 0 0 0 0 0 0 0 0 0 0 0 0 0 0 0 0 0 0 0 0 0 0 0
0 0 0 0 0 0 0 0 0 0 0 0 0 0 0 0 0 0 0 0 0 0 0 0 0 0 0 0 0 0 0 0 0 0 0 0 0 0 0 0 0 0 0
6 0 0 0 0 0 0 0 0 0 0 0 0 0 0 0 0 0 0 0 0 0 0 0 0 0 0 0 0 0 0 0 0 0 0 0 0 0 0 0 0 0 0
7 5 3 0 0 2 0 0 0 0 0 0 0 0 0 0 0 0 0 0 0 0 0 0 0 0 0 0 0 0 0 0 0 0 0 0 0 0 0 0 0 0 0
19 19 20 16 8 9 11 18 13 13 8 2 0 0 0 0 0 0 0 0 0 0 0 0 0 0 0 0 0 0 0 0 0 0 0 0 0 0 0 0 0 0 0
8 27 29 17 19 28 27 31 15 21 14 1 8 3 2 1 1 0 0 0 0 0 0 0 0 0 0 0 0 0 0 0 0 0 0 0 0 0 0 0 0 0 2
24 20 37 31 33 41 34 31 30 28 25 20 9 3 4 3 2 3 4 1 0 0 0 0 0 0 0 0 0 0 0 0 0 0 0 2 0 0 0 2 7 4 6
25 29 36 35 28 22 27 23 23 27 29 32 35 30 7 14 2 4 2 3 5 9 2 0 0 0 0 0 0 0 0 0 0 0 7 1 1 2 2 5 7 9 15
55 54 43 29 37 25 36 47 38 24 25 27 33 52 42 42 36 10 12 3 0 5 23 4 0 0 0 0 0 0 0 0 0 0 0 7 6 1 1 10 8 15 6
64 59 50 29 57 65 49 58 59 52 45 44 59 47 46 47 43 33 43 15 11 20 43 41 6 0 0 0 0 0 0 0 0 0 0 1 1 1 4 4 8 0 4
123 79 96 64 88 105 96 100 74 106 79 79 70 75 59 65 57 61 58 61 57 63 61 48 44 30 19 5 1 4 3 3 8 20 15 15 13 1 3 6 5 7 10
343 88 71 165 92 121 97 86 119 172 69 46 58 60 56 53 58 35 42 44 53 63 62 64 51 51 42 43 32 21 21 19 24 26 8 20 8 8 3 11 3 12 5
52 93 44 166 272 16 80 119 114 320 242 257 103 98 177 91 136 117 80 58 63 46 58 71 47 43 36 43 56 55 50 39 28 31 0 10 11 1 4 5 5 2 4
217 98 115 59 123 87 158 142 92 77 123 65 58 93 100 95 99 127 129 101 84 78 68 67 40 19 43 52 58 43 88 105 14 11 12 1 10 10 5 1 23 5 1
134 181 170 146 140 57 102 82 43 70 81 43 49 55 52 45 69 119 108 73 72 110 104 113 51 29 24 8 17 26 31 25 7 9 14 11 5 6 1 1 9 1 2
7 9 29 128 132 188 179 129 102 159 153 208 162 211 67 140 97 133 86 31 40 15 38 70 108 87 78 31 7 8 24 15 1 5 11 0 6 29 12 4 1 1 3
3 4 4 7 13 17 8 30 96 141 152 144 182 29 93 9 57 42 84 44 40 6 4 3 17 0 8 4 18 4 17 16 34 5 4 5 4 6 8 0 0 0 10
CIN
0 -1 -8 -10 -2 0 0 0 0 0 0 0 0 0 0 0 0 0 -6 -27 -2 0 0 0 0 0 0 0 0 0 0 0 0 0 0 0 0 0 0 0 0 0 0
0 0 0 -1 0 0 0 0 0 0 0 0 0 0 0 0 0 0 0 0 -4 -2 0 0 0 0 0 0 0 0 0 0 0 0 0 0 0 0 0 0 0 0 0
0 0 0 0 0 0 0 0 0 0 0 0 0 0 0 0 0 0 0 0 0 0 0 0 0 0 0 0 0 0 0 0 0 0 0 0 0 0 0 0 0 0 0
0 0 0 0 0 0 0 0 0 0 0 0 0 0 0 0 0 0 0 0 0 0 0 0 0 0 0 0 0 0 0 0 0 0 0 0 0 0 0 0 0 0 0
0 0 0 0 0 0 0 0 0 0 0 0 0 0 0 0 0 0 0 0 0 0 0 0 0 0 0 0 0 0 0 0 0 0 0 0 0 0 0 0 0 0 0
0 0 0 0 0 0 0 0 0 0 0 0 0 0 0 0 0 0 0 0 0 0 0 0 0 0 0 0 0 0 0 0 0 0 0 0 0 0 0 0 0 0 0
0 0 0 0 0 0 0 0 0 0 0 0 0 0 0 0 0 0 0 0 0 0 0 0 0 0 0 0 0 0 0 0 0 0 0 0 0 0 0 0 0 0 0
0 0 0 0 0 0 0 0 0 0 0 0 0 0 0 0 0 0 0 0 0 0 0 0 0 0 0 0 0 0 0 0 0 0 0 0 0 0 0 0 0 0 0
0 0 0 0 0 0 0 0 0 0 0 0 0 0 0 0 0 0 0 0 0 0 0 0 0 0 0 0 0 0 0 0 0 0 0 0 0 0 0 0 0 0 0
0 0 0 0 0 0 0 0 0 0 0 0 0 0 0 0 0 0 0 0 0 0 0 0 0 0 0 0 0 0 0 0 0 0 0 0 0 0 0 0 0 0 0
0 0 0 0 0 0 0 0 0 0 0 0 0 0 0 0 0 0 0 0 0 0 0 0 0 0 0 0 0 0 0 0 0 0 0 0 0 0 0 0 0 0 0
-9 0 0 0 0 0 0 0 0 0 0 0 0 0 0 0 0 0 0 0 0 0 0 0 0 0 0 0 0 0 0 0 0 0 0 0 0 0 0 0 0 0 0
-21 -23 -17 0 0 -23 0 0 0 0 0 0 0 0 0 0 0 0 0 0 0 0 0 0 0 0 0 0 0 0 0 0 0 0 0 0 0 0 0 0 0 0 0
-53 -53 -45 -44 -50 -50 -49 -26 -51 -56 -51 -23 0 0 0 0 0 0 0 0 0 0 0 0 0 0 0 0 0 0 0 0 0 0 0 0 0 0 0 0 0 0 0
-7 -53 -60 -1 -19 -56 -49 -51 -12 -12 -22 0 -43 -19 -7 -5 -2 -1 0 0 0 0 0 0 0 0 0 0 0 0 0 0 0 0 0 0 0 0 0 0 0 0 -2
-21 -48 -50 -64 -65 -77 -61 -60 -16 -20 -18 -13 -9 0 0 0 -8 0 -1 -1 0 0 0 0 0 0 0 0 0 0 0 0 0 0 0 -1 0 0 0 0 0 -2 -1
-28 -20 -17 -18 -37 -36 -29 -11 -13 -13 -15 -17 -21 -20 0 -9 0 0 -7 -11 0 0 0 0 0 0 0 0 0 0 0 0 0 0 -3 -2 -3 -1 0 -1 0 -3 0
-94 -33 -34 -33 -4 -5 -6 -3 -10 -12 -9 -12 -12 -14 -15 -13 -10 0 -7 0 -1 -1 -1 -1 0 0 0 0 0 0 0 0 0 0 0 -11 -7 0 0 -2 0 0 -3
-45 -57 -12 -3 -15 -14 -16 -7 -6 -13 -5 -7 -16 -9 -23 -14 -13 -15 -7 -1 -1 -2 0 0 -3 0 0 0 0 0 0 0 0 0 0 -1 -4 -7 -3 0 0 0 0
-13 -35 -7 -15 -6 -18 -14 -21 -22 -21 -24 -26 -11 -8 -10 -12 -10 -6 -7 -2 -1 0 0 -1 0 -1 -1 -4 -5 -12 -13 -10 -9 -1 0 -3 0 -3 0 0 0 0 0
-2 -25 -17 -2 -8 -9 -15 -18 -9 -1 -19 -17 -14 -17 -12 -32 -34 -19 -18 -20 -9 -1 -2 -3 -1 -1 -4 -6 -14 -17 -10 -3 -2 0 -1 0 -3 -1 -13 -7 0 0 0
-51 -21 -29 -3 0 -7 -6 -2 -4 -1 -1 0 -14 -10 -1 -19 -7 -10 -2 -1 0 0 0 -2 -4 -4 -17 -12 -16 -5 -5 -22 -1 0 -1 0 -5 -2 -1 -7 -1 0 0
-6 -32 -17 -27 -2 -4 0 -2 -14 -2 -5 -9 -7 -10 -6 -12 -15 -9 -9 -1 0 0 0 0 0 -3 -1 0 -1 -2 -1 -6 0 -6 0 -1 -14 -2 0 0 0 -6 0
-11 -4 0 -1 -1 -8 -3 -9 -16 -7 -10 -7 -1 -7 -5 -3 -3 -4 -6 -4 -5 -2 -2 0 -19 -33 -5 -3 -1 -12 -10 -16 -13 -1 -1 -2 -2 -2 0 -1 0 0 0
0 -8 -25 -2 0 0 -1 -2 -4 0 -4 0 -1 0 -2 -1 -2 -6 -2 -64 -5 -17 -6 -5 -5 0 -4 -8 -38 -46 -50 -57 0 0 0 -1 -1 -1 0 0 0 0 0
-1 0 0 0 -1 0 0 -11 -1 0 -1 0 0 -6 -2 -10 -36 -19 -1 -6 -4 -39 -8 -1 -10 0 -20 0 0 -34 0 0 -6 0 0 0 0 0 -13 0 0 0 0
Wind_Speed
nan nan nan nan nan nan nan nan nan nan nan nan nan nan nan nan nan nan nan nan nan nan nan nan nan nan nan nan nan nan nan nan nan nan nan nan nan nan nan nan nan nan nan
nan nan nan nan nan nan nan nan nan nan nan nan nan nan nan nan nan nan nan nan nan nan nan nan nan nan nan nan nan nan nan nan nan nan nan nan nan nan nan nan nan nan nan
nan nan nan nan nan nan nan nan nan nan nan nan nan nan nan nan nan nan nan nan nan nan nan nan nan nan nan nan nan nan nan nan nan nan nan nan nan nan nan nan nan nan nan
nan nan nan nan nan nan nan nan nan nan nan nan nan nan nan nan nan nan nan nan nan nan nan nan nan nan nan nan nan nan nan nan nan nan nan nan nan nan nan nan nan nan nan
nan nan nan nan nan nan nan nan nan nan nan nan nan nan nan nan nan nan nan nan nan nan nan nan nan nan nan nan nan nan nan nan nan nan nan nan nan nan nan nan nan nan nan
nan nan nan nan nan nan nan nan nan nan nan nan nan nan nan nan nan nan nan nan nan nan nan nan nan nan nan nan nan nan nan nan nan nan nan nan nan nan nan nan nan nan nan
nan nan nan nan nan nan nan nan nan nan nan nan nan nan nan nan nan nan nan nan nan nan nan nan nan nan nan nan nan nan nan nan nan nan nan nan nan nan nan nan nan nan nan
nan nan nan nan nan nan nan nan nan nan nan nan nan nan nan nan nan nan nan nan nan nan nan nan nan nan nan nan nan nan nan nan nan nan nan nan nan nan nan nan nan nan nan
nan nan nan nan nan nan nan nan nan nan nan nan nan nan nan nan nan nan nan nan nan nan nan nan nan nan nan nan nan nan nan nan nan nan nan nan nan nan nan nan nan nan nan
nan nan nan nan nan nan nan nan nan nan nan nan nan nan nan nan nan nan nan nan nan nan nan nan nan nan nan nan nan nan nan nan nan nan nan nan nan nan nan nan nan nan nan
nan nan nan nan nan nan nan nan nan nan nan nan nan nan nan nan nan nan nan nan nan nan nan nan nan nan nan nan nan nan nan nan nan nan nan nan nan nan nan nan nan nan nan
nan nan nan nan nan nan nan nan nan nan nan nan nan nan nan nan nan nan nan nan nan nan nan nan nan nan nan nan nan nan nan nan nan nan nan nan nan nan nan nan nan nan nan
nan nan nan nan nan nan nan nan nan nan nan nan nan nan nan nan nan nan nan nan nan nan nan nan nan nan nan nan nan nan nan nan nan nan nan nan nan nan nan nan nan nan nan
nan nan nan nan nan nan nan nan nan nan nan nan nan nan nan nan nan nan nan nan nan nan nan nan nan nan nan nan nan nan nan nan nan nan nan nan nan nan nan nan nan nan nan
nan nan nan nan nan nan nan nan nan nan nan nan nan nan nan nan nan nan nan nan nan nan nan nan nan nan nan nan nan nan nan nan nan nan nan nan nan nan nan nan nan nan nan
nan nan nan nan nan nan nan nan nan nan nan nan nan nan nan nan nan nan nan nan nan nan nan nan nan nan nan nan nan nan nan nan nan nan nan nan nan nan nan nan nan nan nan
nan nan nan nan nan nan nan nan nan nan nan nan nan nan nan nan nan nan nan nan nan nan nan nan nan nan nan nan nan nan nan nan nan nan nan nan nan nan nan nan nan nan nan
nan nan nan nan nan nan nan nan nan nan nan nan nan nan nan nan nan nan nan nan nan nan nan nan nan nan nan nan nan nan nan nan nan nan nan nan nan nan nan nan nan nan nan
nan nan nan nan nan nan nan nan nan nan nan nan nan nan nan nan nan nan nan nan nan nan nan nan nan nan nan nan nan nan nan nan nan nan nan nan nan nan nan nan nan nan nan
53 nan nan nan nan 42 nan 38 nan 37 nan nan nan nan nan nan nan nan nan nan nan nan nan nan nan nan nan nan nan nan nan nan nan nan nan nan nan nan nan nan nan nan nan
56 nan nan 54 nan 52 nan nan 48 46 nan nan nan nan nan nan nan nan nan nan nan nan nan nan nan nan nan nan nan nan nan nan nan nan nan nan nan nan nan nan nan nan nan
nan nan nan 58 59 nan nan 64 61 56 53 50 49 nan 53 nan 51 49 nan nan nan nan nan nan nan nan nan nan nan nan nan nan nan nan nan nan nan nan nan nan nan nan nan
59 nan 55 nan 63 nan 66 66 nan nan 60 nan nan nan 57 nan nan 55 53 50 nan nan nan nan nan nan nan nan nan nan nan 64 nan nan nan nan nan nan nan nan nan nan nan
57 57 58 61 62 nan 62 nan nan nan nan nan nan nan nan nan nan 62 60 nan nan 61 60 61 nan nan nan nan nan nan nan nan nan nan nan nan nan nan nan nan nan nan nan
nan nan nan 64 63 64 63 65 67 66 66 65 63 64 nan 66 nan 66 nan nan nan nan nan nan 60 nan nan nan nan nan nan nan nan nan nan nan nan nan nan nan nan nan nan
nan nan nan nan nan nan nan nan nan 72 71 71 73 nan nan nan nan nan nan nan nan nan nan nan nan nan nan nan nan nan nan nan nan nan nan nan nan nan nan nan nan nan nan
Wind_Direction
nan nan nan nan nan nan nan nan nan nan nan nan nan nan nan nan nan nan nan nan nan nan nan nan nan nan nan nan nan nan nan nan nan nan nan nan nan nan nan nan nan nan nan
nan nan nan nan nan nan nan nan nan nan nan nan nan nan nan nan nan nan nan nan nan nan nan nan nan nan nan nan nan nan nan nan nan nan nan nan nan nan nan nan nan nan nan
nan nan nan nan nan nan nan nan nan nan nan nan nan nan nan nan nan nan nan nan nan nan nan nan nan nan nan nan nan nan nan nan nan nan nan nan nan nan nan nan nan nan nan
nan nan nan nan nan nan nan nan nan nan nan nan nan nan nan nan nan nan nan nan nan nan nan nan nan nan nan nan nan nan nan nan nan nan nan nan nan nan nan nan nan nan nan
nan nan nan nan nan nan nan nan nan nan nan nan nan nan nan nan nan nan nan nan nan nan nan nan nan nan nan nan nan nan nan nan nan nan nan nan nan nan nan nan nan nan nan
nan nan nan nan nan nan nan nan nan nan nan nan nan nan nan nan nan nan nan nan nan nan nan nan nan nan nan nan nan nan nan nan nan nan nan nan nan nan nan nan nan nan nan
nan nan nan nan nan nan nan nan nan nan nan nan nan nan nan nan nan nan nan nan nan nan nan nan nan nan nan nan nan nan nan nan nan nan nan nan nan nan nan nan nan nan nan
nan nan nan nan nan nan nan nan nan nan nan nan nan nan nan nan nan nan nan nan nan nan nan nan nan nan nan nan nan nan nan nan nan nan nan nan nan nan nan nan nan nan nan
nan nan nan nan nan nan nan nan nan nan nan nan nan nan nan nan nan nan nan nan nan nan nan nan nan nan nan nan nan nan nan nan nan nan nan nan nan nan nan nan nan nan nan
nan nan nan nan nan nan nan nan nan nan nan nan nan nan nan nan nan nan nan nan nan nan nan nan nan nan nan nan nan nan nan nan nan nan nan nan nan nan nan nan nan nan nan
nan nan nan nan nan nan nan nan nan nan nan nan nan nan nan nan nan nan nan nan nan nan nan nan nan nan nan nan nan nan nan nan nan nan nan nan nan nan nan nan nan nan nan
nan nan nan nan nan nan nan nan nan nan nan nan nan nan nan nan nan nan nan nan nan nan nan nan nan nan nan nan nan nan nan nan nan nan nan nan nan nan nan nan nan nan nan
nan nan nan nan nan nan nan nan nan nan nan nan nan nan nan nan nan nan nan nan nan nan nan nan nan nan nan nan nan nan nan nan nan nan nan nan nan nan nan nan nan nan nan
nan nan nan nan nan nan nan nan nan nan nan nan nan nan nan nan nan nan nan nan nan nan nan nan nan nan nan nan nan nan nan nan nan nan nan nan nan nan nan nan nan nan nan
nan nan nan nan nan nan nan nan nan nan nan nan nan nan nan nan nan nan nan nan nan nan nan nan nan nan nan nan nan nan nan nan nan nan nan nan nan nan nan nan nan nan nan
nan nan nan nan nan nan nan nan nan nan nan nan nan nan nan nan nan nan nan nan nan nan nan nan nan nan nan nan nan nan nan nan nan nan nan nan nan nan nan nan nan nan nan
nan nan nan nan nan nan nan nan nan nan nan nan nan nan nan nan nan nan nan nan nan nan nan nan nan nan nan nan nan nan nan nan nan nan nan nan nan nan nan nan nan nan nan
nan nan nan nan nan nan nan nan nan nan nan nan nan nan nan nan nan nan nan nan nan nan nan nan nan nan nan nan nan nan nan nan nan nan nan nan nan nan nan nan nan nan nan
nan nan nan nan nan nan nan nan nan nan nan nan nan nan nan nan nan nan nan nan nan nan nan nan nan nan nan nan nan nan nan nan nan nan nan nan nan nan nan nan nan nan nan
249 nan nan nan nan 264 nan 267 nan 278 nan nan nan nan nan nan nan nan nan nan nan nan nan nan nan nan nan nan nan nan nan nan nan nan nan nan nan nan nan nan nan nan nan
253 nan nan 255 nan 257 nan nan 263 265 nan nan nan nan nan nan nan nan nan nan nan nan nan nan nan nan nan nan nan nan nan nan nan nan nan nan nan nan nan nan nan nan nan
nan nan nan 256 258 nan nan 254 257 261 265 270 272 nan 275 nan 282 286 nan nan nan nan nan nan nan nan nan nan nan nan nan nan nan nan nan nan nan nan nan nan nan nan nan
254 nan 258 nan 259 nan 258 258 nan nan 264 nan nan nan 273 nan nan 280 281 285 nan nan nan nan nan nan nan nan nan nan nan 298 nan nan nan nan nan nan nan nan nan nan nan
259 259 258 258 261 nan 260 nan nan nan nan nan nan nan nan nan nan 276 279 nan nan 283 285 287 nan nan nan nan nan nan nan nan nan nan nan nan nan nan nan nan nan nan nan
nan nan nan 264 264 263 260 260 261 266 267 267 269 268 nan 270 nan 267 nan nan nan nan nan nan 285 nan nan nan nan nan nan nan nan nan nan nan nan nan nan nan nan nan nan
nan nan nan nan nan nan nan nan nan 263 263 265 266 nan nan nan nan nan nan nan nan nan nan nan nan nan nan nan nan nan nan nan nan nan nan nan nan nan nan nan nan nan nan